User: anonymous   Login
Location: Theydon Bois
(51.6750°N, 0.1050°E)
Time: 02:59:02
(UTC+01:00)
Language:

KORONAS-FOTON - Orbit

View from above orbital plane
View from above orbital plane
View from above satellite
View from above satellite

Ground track
Ground track

The orbit data is extracted from the following two-line orbital elements,

1 33504U 09003A   17296.50957934  .00000315  00000-0  15068-4 0  9997
2 33504  82.4398 105.4624 0020174  30.6393 329.6013 15.14968860480904
Epoch (UTC): 23 October 2017 12:13:47
Eccentricity: 0.0020174
inclination: 82.4398°
perigee height: 507 km
apogee height: 535 km
right ascension of ascending node: 105.4624°
argument of perigee: 30.6393°
revolutions per day: 15.14968860
mean anomaly at epoch: 329.6013°
orbit number at epoch: 48090

The dashed part of the orbit path shows where the satellite is in the earth's shadow,  

DLR